Thomas Levesque

Thomas Levesque

Statistiques 2026

  • Courses courues : 66
  • Nb de victoires : 8
  • Nb de places : 29
  • Écart gagnant : 1
  • Réussite à la gagne : 12%
  • Réussite à la place : 44%
Musique : 3a 1a 5a Da Da 2a Da 3a 2a 3a 3a 4a Da 2a Da 4a 5a 2a

Thomas Levesque en quelques mots

Né le 16 juin 1992 et issu d’une grande famille du trot français, Thomas Levesque est le fils de Pierre Levesque et l’arrière-petit-fils d’Henri Levesque. Il remporte la première course de sa carrière en selle sur Obligado le 16 août 2008 à Saint-Malo. Le 7 février 2009, il franchit le poteau en tête pour la première fois à Vincennes avec Naxia de Feugères. Le 7 avril 2012, il signe le 50ème succès de sa carrière en selle sur Ramona et passe professionnel. Le 16 juin 2012, il épingle son premier Groupe en selle sur Tigresse du Vivier dans le Prix Xavier de Saint-Palais (G.II).

DateRangCatégorieAlloc.Dist.HippodromeChevalRed. KmSpé.
04/05/14 D Trot 13 000€ 2 300m Bernay Badames Attelé
04/05/14 D Trot 16 000€ 2 300m Bernay Tresor d'Arclais Monté
04/05/14 2 Trot 16 000€ 2 825m Bernay Authorized Attelé
07/09/14 7 Trot 15 000€ 2 300m Bernay Bye Bye Cherie Monté
07/09/14 1 Trot 15 000€ 2 800m Bernay Byron du Klau TNC Attelé
07/09/14 D Trot 30 000€ 2 800m Bernay Opportunity Attelé
07/09/14 5 Trot 18 000€ 2 800m Bernay Aqua Alta Attelé
17/08/08 D Trot 15 000€ 2 325m Bernay Quapri de Feugeres Monté
19/09/10 D Trot 15 000€ 2 300m Bernay Temps du Marin Monté
19/09/10 D Trot 14 000€ 2 300m Bernay Top Boy Attelé
11/09/11 6 Trot 15 000€ 2 300m Bernay Un Pour Deux Monté
09/09/12 7 Trot 14 000€ 2 300m Bernay Vaya du Pommereux Monté
09/09/12 D Trot 15 000€ 2 300m Bernay Vahine du Dollar Attelé
09/09/12 4 Trot 32 000€ 2 825m Bernay Roxane de Beaumee Attelé
09/09/12 0 Trot 18 000€ 2 800m Bernay Ultra du Gade Attelé
09/05/21 D Trot 14 000€ 2 825m Bernay Heraklion Attelé
26/07/15 3 Trot 12 000€ 2 800m Bernay Ciroco d'Auvillier Attelé
03/07/16 1 Trot 12 000€ 2 800m Bernay Dream Fromentro 1'30"9 Attelé
03/07/16 5 Trot 12 000€ 2 800m Bernay Diablotin Attelé
03/07/16 4 Trot 12 000€ 2 800m Bernay Desperate Wife Attelé
03/07/16 8 Trot 12 000€ 2 800m Bernay Death Valley Attelé
24/07/16 2 Trot 25 000€ 2 825m Bernay Borsalino 1'19"7 Attelé
24/07/16 8 Trot 26 000€ 2 825m Bernay Blue Story 1'20"5 Attelé
24/07/16 1 Trot 36 000€ 2 800m Bernay Authorized 1'19"0 Attelé
24/07/16 2 Trot 15 000€ 2 800m Bernay Cepage des Ulmes 1'22"4 Attelé
24/07/16 9 Trot 12 000€ 2 800m Bernay Doria de Safran 1'26"4 Attelé
24/07/16 4 Trot 12 000€ 2 800m Bernay Diablotin 1'24"7 Attelé
10/09/17 2 Trot 32 000€ 2 825m Bernay Authorized 1'22"0 Attelé
08/05/18 D Trot 16 000€ 2 800m Bernay Esta Bien Attelé
22/07/18 D Trot 18 000€ 2 825m Bernay Divinity Ranaise Attelé
22/07/18 9 Trot 32 000€ 2 825m Bernay Bellinissimo Attelé
09/09/18 2 Trot 15 000€ 2 800m Bernay Forrest Bois Morin Attelé
09/09/18 0 Trot 30 000€ 2 825m Bernay Authorized Attelé
09/09/18 D Trot 15 000€ 2 800m Bernay Elliot Quesnot Attelé
09/09/18 D Trot 15 000€ 2 800m Bernay Eureka Jenilat Attelé
14/07/16 D Trot 12 000€ 2 850m Bagnoles De L'Orne Calinou de Cerisy Attelé
14/07/16 6 Trot 18 000€ 2 875m Bagnoles De L'Orne Authorized Attelé
04/08/15 D Trot 11 000€ 2 700m Avranches Carioca Attelé
04/08/15 1 Trot 14 000€ 2 725m Avranches Bip Bip du Reverdy TNC Attelé
04/08/15 1 Trot 14 000€ 2 700m Avranches Bovary TNC Attelé
04/08/15 6 Trot 14 000€ 2 700m Avranches Baltimore Attelé
18/06/17 D Trot 11 000€ 2 700m Avranches Elliptic Bond Attelé
18/06/17 D Trot 12 000€ 2 725m Avranches Dulcinee de l'Ante Attelé
18/06/17 D Trot 12 000€ 2 725m Avranches Dribbleur Attelé
18/06/17 D Trot 11 000€ 2 700m Avranches Egerie de Banville Attelé
23/07/17 D Trot 11 000€ 2 700m Avranches El Cordobes Attelé
23/07/17 6 Trot 20 000€ 2 725m Avranches Bobby du Vivier Attelé
23/07/17 D Trot 10 000€ 2 700m Avranches Desiree du Bossu Attelé
23/07/17 D Trot 12 000€ 2 725m Avranches Charly de la Noe Attelé
01/08/17 2 Trot 20 000€ 2 725m Avranches Bobby du Vivier Attelé